Location: Campo Alegre
(10.1673°N, 67.4431°W)
Time: 12:19:05
(UTC+00:00)

Cosmos 1943 - Pass Details

Date: 14 April 2024
Orbit: 833 x 848 km, 71.0° (Epoch: 29 May)

Event Time Altitude Azimuth Distance (km) Brightness Sun altitude
Exits shadow 08:35:11 26° 178° (S) 1,585 4.5 -25.9°
Maximum altitude 08:38:19 63° 105° (ESE) 937 3.5 -25.1°
Drops below altitude 10° 08:43:54 10° 25° (NNE) 2,463 6.1 -23.8°
Sets 08:46:22 0° 22° (NNE) 3,399 6.9 -23.2°
